TimeEDT,TemperatureF,Dew PointF,Humidity,Sea Level PressureIn,VisibilityMPH,Wind Direction,Wind SpeedMPH,Gust SpeedMPH,PrecipitationIn,Events,Conditions,WindDirDegrees,DateUTC
12:56 AM,62.6,60.8,94,30.02,3.0,Calm,Calm,-,N/A,,Clear,0,2013-09-08 04:56:00
1:16 AM,62.6,62.6,100,30.02,4.0,Calm,Calm,-,N/A,,Clear,0,2013-09-08 05:16:00
1:37 AM,62.6,62.6,100,30.02,7.0,Calm,Calm,-,N/A,,Clear,0,2013-09-08 05:37:00
4:16 AM,62.6,60.8,94,30.00,7.0,Calm,Calm,-,N/A,,Clear,0,2013-09-08 08:16:00
4:58 AM,60.8,60.8,100,30.00,5.0,Calm,Calm,-,N/A,,Clear,0,2013-09-08 08:58:00
5:16 AM,60.8,60.8,100,30.00,5.0,Calm,Calm,-,N/A,,Clear,0,2013-09-08 09:16:00
5:56 AM,60.8,60.8,100,30.00,5.0,Calm,Calm,-,N/A,,Clear,0,2013-09-08 09:56:00
6:37 AM,60.8,60.8,100,30.01,3.0,Calm,Calm,-,N/A,,Clear,0,2013-09-08 10:37:00
7:35 AM,62.6,60.8,94,30.02,5.0,Calm,Calm,-,N/A,,Scattered Clouds,0,2013-09-08 11:35:00
8:58 AM,71.6,66.2,83,30.01,10.0,Calm,Calm,-,N/A,,Clear,0,2013-09-08 12:58:00
9:16 AM,73.4,66.2,78,30.01,10.0,Calm,Calm,-,N/A,,Clear,0,2013-09-08 13:16:00
9:56 AM,77.0,66.2,69,30.01,10.0,Calm,Calm,-,N/A,,Clear,0,2013-09-08 13:56:00
10:36 AM,80.6,64.4,58,30.01,10.0,Calm,Calm,-,N/A,,Clear,0,2013-09-08 14:36:00
11:57 AM,84.2,60.8,45,30.01,10.0,Calm,Calm,-,N/A,,Scattered Clouds,0,2013-09-08 15:57:00
1:17 PM,84.2,60.8,45,30.00,10.0,NW,3.5,-,N/A,,Scattered Clouds,310,2013-09-08 17:17:00
1:58 PM,84.2,59.0,42,30.00,10.0,Calm,Calm,-,N/A,,Scattered Clouds,0,2013-09-08 17:58:00
3:36 PM,84.2,60.8,45,29.97,10.0,Calm,Calm,-,N/A,,Clear,0,2013-09-08 19:36:00
6:17 PM,84.2,60.8,45,29.96,10.0,Calm,Calm,-,N/A,,Scattered Clouds,0,2013-09-08 22:17:00
6:55 PM,77.0,69.8,78,29.96,10.0,Calm,Calm,-,N/A,,Clear,0,2013-09-08 22:55:00
7:56 PM,73.4,69.8,88,29.98,10.0,Calm,Calm,-,N/A,,Scattered Clouds,0,2013-09-08 23:56:00
8:35 PM,71.6,69.8,94,29.98,7.0,Calm,Calm,-,N/A,,Clear,0,2013-09-09 00:35:00
9:16 PM,69.8,68.0,94,30.00,5.0,Calm,Calm,-,N/A,,Clear,0,2013-09-09 01:16:00
9:56 PM,69.8,68.0,94,30.01,5.0,Calm,Calm,-,N/A,,Clear,0,2013-09-09 01:56:00
10:16 PM,69.8,68.0,94,30.02,5.0,Calm,Calm,-,N/A,,Scattered Clouds,0,2013-09-09 02:16:00
10:56 PM,68.0,66.2,94,30.02,5.0,Calm,Calm,-,N/A,,Clear,0,2013-09-09 02:56:00
11:56 PM,68.0,66.2,94,30.03,5.0,Calm,Calm,-,N/A,,Scattered Clouds,0,2013-09-09 03:56:00